This is the latest recevied weather packets stored in our database for station/object K7KAR-2. If no packets are shown the sender has not sent any weather packets the latest 10 day(s).
| Time | Temp. | Humidity | Pressure | Rain* | Wind** | Luminosity | Snow |
|---|---|---|---|---|---|---|---|
| 1778331128 | 10° C | 62% | 1014.9 hPa | 0 mm | - | 25 W/m² | - |
| 1778330824 | 10° C | 61% | 1015.1 hPa | 0 mm | - | 21 W/m² | - |
| 1778330520 | 10° C | 61% | 1015.1 hPa | 0 mm | - | 17 W/m² | - |
| 1778330219 | 10° C | 63% | 1015 hPa | 0 mm | - | 12 W/m² | - |
| 1778329915 | 10° C | 63% | 1015 hPa | 0 mm | - | 13 W/m² | - |
| 1778329611 | 10° C | 62% | 1015.1 hPa | 0 mm | - | 10 W/m² | - |
| 1778329308 | 10° C | 61% | 1014.8 hPa | 0 mm | - | 8 W/m² | - |
| 1778329004 | 10° C | 62% | 1014.8 hPa | 0 mm | - | 5 W/m² | - |
| 1778328703 | 10.56° C | 59% | 1014.8 hPa | 0 mm | - | 2 W/m² | - |
| 1778328401 | 10.56° C | 58% | 1014.5 hPa | 0 mm | - | 0 W/m² | - |
| 1778328098 | 10.56° C | 56% | 1014.7 hPa | 0 mm | - | 0 W/m² | - |
| 1778327795 | 10.56° C | 56% | 1014.1 hPa | 0 mm | - | 0 W/m² | - |
| 1778327493 | 10.56° C | 55% | 1014.3 hPa | 0 mm | - | 0 W/m² | - |
| 1778327191 | 11.11° C | 54% | 1014.1 hPa | 0 mm | - | 0 W/m² | - |
| 1778326890 | 11.11° C | 52% | 1014.3 hPa | 0 mm | - | 0 W/m² | - |
| 1778326588 | 11.11° C | 52% | 1013.9 hPa | 0 mm | - | 0 W/m² | - |
| 1778326285 | 12.22° C | 46% | 1014.1 hPa | 0 mm | - | 0 W/m² | - |
| 1778325981 | 12.22° C | 43% | 1014 hPa | 0 mm | - | 0 W/m² | - |
| 1778325678 | 12.78° C | 42% | 1013.8 hPa | 0 mm | - | 0 W/m² | - |
| 1778325375 | 12.78° C | 41% | 1014.1 hPa | 0 mm | - | 0 W/m² | - |
| 1778325072 | 12.78° C | 41% | 1013.8 hPa | 0 mm | - | 0 W/m² | - |
| 1778324769 | 12.78° C | 41% | 1014 hPa | 0 mm | - | 0 W/m² | - |
| 1778324466 | 12.78° C | 41% | 1013.7 hPa | 0 mm | - | 0 W/m² | - |
| 1778324164 | 12.78° C | 40% | 1013.6 hPa | 0 mm | - | 0 W/m² | - |
| 1778323862 | 12.78° C | 38% | 1013.7 hPa | 0 mm | - | 0 W/m² | - |
* Rain latest hour (hover to see other rain measurements)
** Current wind speed in m/s (hover to see current wind gust speed)